Lid_Strength_Index
12 10 10 11 11 11 13 13 15 14 13 11 11 10 12 11 11 11 11 11 11 11 10 10 9 8 8 7 8 7 8 7 7 7 8 8 8 8 7 7 8 8 9 10
13 10 11 12 10 10 11 11 12 12 13 9 11 11 11 11 11 11 10 10 9 9 9 9 8 8 7 6 7 8 8 8 8 8 8 8 8 8 8 8 8 9 9 10
16 11 12 14 11 11 11 11 11 14 11 9 11 10 10 11 10 10 10 9 9 9 9 8 8 7 8 6 8 9 8 8 8 8 8 8 8 9 9 9 9 9 10 11
16 14 19 12 8 9 10 9 10 9 9 9 10 11 10 10 10 10 9 10 9 10 9 8 7 7 7 7 8 8 9 8 8 8 8 8 10 11 10 9 9 9 11 11
17 17 13 11 9 11 12 12 9 9 9 10 10 10 11 9 9 10 10 10 10 10 8 8 7 7 7 8 9 8 9 9 8 8 9 9 11 12 11 11 10 10 11 12
16 18 19 12 8 8 9 15 8 9 9 10 10 13 12 10 9 10 9 10 10 10 9 9 7 7 9 10 10 9 9 8 8 9 10 11 12 12 12 11 9 9 10 11
17 18 14 9 8 8 14 13 8 8 9 9 10 10 10 9 10 10 10 10 10 10 10 10 7 8 10 10 10 9 8 8 8 9 10 13 14 14 13 12 11 12 12 13
15 17 18 7 8 11 10 10 8 9 9 10 10 10 9 10 10 10 10 10 9 11 11 10 9 10 11 11 9 9 9 8 9 10 9 11 14 14 14 14 13 13 13 12
13 13 9 8 9 8 8 9 9 9 9 9 10 10 10 11 11 10 10 10 9 10 10 10 10 10 10 10 9 8 9 9 9 9 10 10 12 14 14 14 14 13 12 12
11 10 9 8 7 8 8 8 8 8 8 8 9 9 10 11 11 11 10 10 10 10 10 10 10 9 9 9 8 8 9 9 10 9 10 11 11 12 14 14 14 13 12 12
11 10 8 7 7 7 8 7 7 8 8 8 9 10 10 11 11 10 10 10 10 10 10 10 9 9 9 8 8 9 10 10 10 9 10 10 11 11 11 13 13 13 12 12
12 8 8 8 7 7 8 8 8 8 8 8 9 10 10 10 10 10 10 10 10 10 10 9 9 9 8 9 10 11 11 11 10 10 10 10 10 11 10 10 10 10 10 10
8 6 7 7 7 7 8 8 7 8 8 9 9 9 9 10 10 9 9 10 9 9 9 9 9 8 9 9 9 10 11 11 10 10 10 11 11 11 11 9 9 9 9 8
6 6 7 7 8 7 8 7 7 8 8 8 9 9 9 9 9 9 9 9 8 8 8 8 8 8 8 8 8 8 8 9 11 11 11 11 11 11 11 10 10 9 8 8
6 6 6 7 7 8 7 8 9 9 9 9 9 9 9 9 9 9 8 8 8 8 7 7 8 9 8 8 8 8 8 8 9 10 11 11 11 11 11 10 10 9 9 8
6 6 6 7 7 8 8 8 9 9 9 9 9 9 8 9 8 8 7 7 9 9 8 8 9 8 8 8 8 8 8 8 8 9 9 10 10 11 11 11 10 9 9 9
8 8 7 8 8 8 8 8 8 8 8 8 8 8 8 8 8 8 8 7 8 8 8 9 9 8 7 7 7 7 8 9 10 10 9 9 10 10 10 10 10 10 9 8
5 5 5 5 7 7 8 7 7 7 7 7 7 7 8 8 9 8 8 8 8 8 8 7 8 7 7 7 7 7 8 8 10 10 9 10 10 10 10 10 10 9 8 8
5 5 6 6 6 7 7 7 7 7 7 7 7 7 8 8 8 8 8 8 8 9 8 7 7 8 10 9 8 8 7 8 9 10 10 10 10 9 10 10 10 8 8 8
5 5 5 5 5 6 6 6 6 7 7 6 7 8 8 8 7 7 8 8 8 8 8 7 7 8 8 7 9 8 9 10 10 10 10 10 10 9 9 10 9 7 7 6
4 5 5 5 5 6 6 6 6 7 6 6 7 7 8 8 7 7 8 9 7 7 7 7 7 7 7 9 10 10 10 9 9 10 9 10 9 8 9 8 7 6 6 6
4 5 5 5 6 7 7 6 6 6 6 6 6 7 7 8 7 8 7 8 7 8 7 7 7 9 9 11 10 9 8 8 8 9 9 9 9 9 10 9 7 6 6 7
5 5 5 6 7 7 7 7 6 6 6 6 6 7 6 7 8 8 8 7 6 7 7 7 11 13 13 10 8 7 7 7 8 9 9 10 10 10 10 9 9 8 8 8
6 6 6 7 7 7 8 8 7 6 6 6 6 5 5 6 8 7 7 7 9 8 7 8 11 13 12 8 8 8 8 8 10 10 10 12 10 11 10 9 9 9 9 9
6 6 7 7 7 7 7 7 7 7 6 6 5 5 4 4 6 7 6 6 8 8 6 12 12 12 7 8 9 9 10 10 10 10 11 11 11 11 10 10 10 10 10 10
6 6 6 7 7 7 7 6 7 6 6 6 5 4 4 5 5 6 6 6 4 8 8 8 7 7 8 9 10 10 10 10 10 11 11 11 12 11 10 11 11 11 11 11
7 8 7 7 7 6 6 7 6 7 6 5 5 4 4 4 4 5 6 4 5 6 7 7 7 9 9 9 9 10 10 11 12 11 11 12 11 11 11 11 10 10 10 10